[[{"header":{"parameterUnit":"m.s-1","parameterCategory":1,"la1":30.2991,"la2":30.254,"lo1":-89.0895,"lo2":-89.0444,"dy":0.0017,"dx":0.0017,"nx":28,"ny":28,"refTime":"2025-08-24T21:00:00:Z","depth":0,"parameterNumber":2,"parameterNumberName":"U-component_of_WINDS"},"data":[0,0,0,0,0,0,0,0,0,0,0,0,0,0,0,0,0,0,0,0,0,0,0,0,0,0,0,0,0,0,0,0,0,0,0,0,0,0,0,0,0,0,0,0,0,0,0,0,0,0,0,0,0,0,0,0,0,0,0.0749,0.0749,0,0.0766,0.0767,0.0767,0.0771,0.0771,0.0771,0.077,0.0789,0.0789,0.079,0,0,0,0,0,0,0,0,0,0,0,0,0,0.072,0.0721,0.0749,0.0749,0.0749,0.0766,0.0767,0.0767,0.0771,0.0771,0.0771,0.077,0.0788,0.0789,0.079,0,0,0,0,0,0,0,0,0,0,0,0,0,0.0735,0.0721,0.0749,0.0753,0.0754,0.0766,0.0767,0.0767,0.0771,0.0771,0.0771,0.077,0.0788,0.0789,0.079,0.0799,0,0,0.0793,0.0793,0,0,0,0,0,0,0,0,0.0734,0.0736,0.0753,0.0753,0.0754,0.0766,0.0763,0.0778,0.0771,0.0764,0.077,0.077,0.0781,0.0783,0.0786,0.08,0.0801,0.0793,0.0793,0.0794,0.0794,0,0,0,0,0,0,0,0.0733,0.0735,0.0756,0.0753,0.0754,0.0755,0.0757,0.0766,0.0774,0.0765,0.0765,0.0767,0.0782,0.0786,0.0787,0.0801,0.0793,0.0793,0.0794,0.0794,0.0824,0.0824,0,0,0,0,0,0,0.0731,0.0734,0.0755,0.0756,0.0743,0.0756,0.0758,0.0762,0.0774,0.0775,0.0768,0.0767,0.0784,0.0786,0.0788,0.08,0.0794,0.0794,0.0795,0.0824,0.0824,0.0824,0,0,0,0,0,0,0.073,0.0733,0.0755,0.0745,0.0748,0.0756,0.0762,0.0763,0.0767,0.0775,0.0777,0.077,0.0784,0.0786,0.0796,0.08,0.0795,0.0796,0.0823,0.0824,0.0824,0.0824,0,0,0,0,0,0,0.0729,0.0733,0.0736,0.0745,0.0749,0.0763,0.0762,0.0763,0.0768,0.0768,0.0778,0.078,0.0784,0.0795,0.0797,0.0802,0.0796,0.0823,0.0823,0.0824,0.0823,0.0824,0.0825,0,0,0,0,0,0.0728,0.0735,0.0736,0.0738,0.0753,0.0763,0.0765,0.077,0.0769,0.0772,0.0778,0.0779,0.0799,0.0796,0.0799,0.0803,0.0823,0.0823,0.0824,0.0823,0.0824,0.0825,0,0,0,0,0,0,0.0725,0.0736,0.0737,0.0747,0.0754,0.0764,0.0768,0.077,0.0778,0.0778,0.0784,0.0786,0.0796,0.08,0.0796,0.0813,0.0811,0.0812,0.081,0.0811,0.0811,0.081,0.0797,0,0,0,0,0,0.0726,0.0733,0.0742,0.075,0.0753,0.076,0.0765,0.0768,0.0776,0.0779,0.0785,0.0792,0.0801,0.0806,0.0814,0.0824,0.0827,0.0829,0.0829,0.083,0.0831,0.0838,0.0839,0.0826,0.0826,0.0826,0,0,0.0727,0.0734,0.0738,0.0749,0.0755,0.0763,0.0763,0.0771,0.0777,0.078,0.079,0.0795,0.0804,0.0814,0.0819,0.0818,0.0835,0.083,0.0831,0.0831,0.0838,0.0839,0.0841,0.0826,0.0826,0.0826,0,0,0.0733,0.0738,0.0746,0.0752,0.0761,0.0766,0.0767,0.0777,0.078,0.0791,0.0794,0.0801,0.0814,0.0821,0.0826,0.0835,0.0837,0.0837,0.0841,0.0847,0.0848,0.0849,0.0853,0.0855,0.0838,0.0838,0.0838,0,0.0733,0.0744,0.0749,0.0757,0.0763,0.0766,0.0774,0.078,0.0791,0.0795,0.0794,0.0812,0.0818,0.083,0.0833,0.0836,0.0839,0.0836,0.0848,0.0849,0.085,0.0854,0.0855,0.0838,0.0838,0.0838,0.0838,0,0.0744,0.0752,0.0757,0.0769,0.0774,0.0782,0.0789,0.0795,0.0797,0.0802,0.0813,0.0821,0.0831,0.0834,0.0836,0.0847,0.0847,0.0846,0.0845,0.0851,0.0855,0.0856,0.0838,0.0838,0.0838,0.0838,0,0,0.0748,0.0763,0.0764,0.077,0.0781,0.0787,0.0796,0.0805,0.081,0.0818,0.0826,0.0838,0.0838,0.0844,0.0847,0.0853,0.0861,0.0852,0.0853,0.0854,0.0874,0.0875,0.0876,0.0862,0.0863,0.0863,0.0874,0,0.0756,0.0771,0.0777,0.0789,0.0797,0.0801,0.0809,0.0817,0.0822,0.0829,0.0835,0.0844,0.0843,0.0847,0.0853,0.0859,0.0865,0.0858,0.087,0.087,0.0868,0.0878,0.0879,0.0889,0.0875,0.0876,0.0876,0,0.0767,0.0775,0.0789,0.08,0.0803,0.081,0.082,0.0827,0.0836,0.0839,0.0846,0.085,0.0859,0.0857,0.087,0.0865,0.0871,0.0875,0.0875,0.0877,0.0874,0.0881,0.0892,0.0894,0.0878,0.0878,0.0878,0,0.0769,0.0784,0.0794,0.0799,0.0811,0.0816,0.0821,0.083,0.0836,0.0845,0.0849,0.0859,0.0864,0.0872,0.0878,0.0875,0.0891,0.0889,0.0895,0.0895,0.0899,0.0898,0.0911,0.0901,0.0901,0.0901,0.0901,0,0.0777,0.0786,0.0796,0.0802,0.0812,0.0818,0.0828,0.0834,0.0842,0.085,0.0854,0.0861,0.0868,0.0877,0.0882,0.0893,0.0895,0.0898,0.09,0.0899,0.0898,0.0902,0.0902,0.0901,0.0901,0.0901,0.0901,0,0.0782,0.0788,0.08,0.0812,0.0815,0.0822,0.0831,0.0838,0.0844,0.0854,0.0856,0.0865,0.0876,0.0882,0.0895,0.0899,0.0911,0.0912,0.0908,0.0909,0.0915,0.0915,0.0932,0.0935,0.0922,0.0922,0.0922,0,0.0786,0.0793,0.0806,0.0811,0.0817,0.0826,0.0832,0.0839,0.0846,0.0857,0.0863,0.0873,0.0882,0.0899,0.0907,0.0917,0.0918,0.0924,0.092,0.0919,0.0919,0.0919,0.092,0.0924,0.0924,0.0924,0.0925,0,0.0795,0.0798,0.0807,0.0818,0.0826,0.0834,0.0843,0.0847,0.0856,0.0863,0.0874,0.0881,0.0895,0.0905,0.0917,0.0923,0.0925,0.0926,0.0928,0.0927,0.0925,0.0927,0.0911,0.0925,0.0925,0.0925,0.0925,0.0925,0.08,0.0807,0.0817,0.0827,0.0835,0.0843,0.085,0.0857,0.0866,0.0878,0.0882,0.0893,0.0903,0.0919,0.0925,0.0934,0.0934,0.0936,0.0937,0.0938,0.0939,0.0923,0.0936,0.0936,0.0936,0.0936,0.0936,0,0.0809,0.0816,0.0826,0.0838,0.0847,0.0848,0.0858,0.0865,0.0876,0.0885,0.0894,0.0907,0.0918,0.0927,0.0938,0.0944,0.0946,0.0947,0.0947,0.0948,0.0938,0.0935,0.0945,0.0945,0.0945,0.0945,0.0945,0.0945,0.0815,0.0827,0.0832,0.0848,0.0855,0.0866,0.0872,0.088,0.0887,0.0902,0.0911,0.0917,0.0926,0.0939,0.0949,0.0951,0.0956,0.0957,0.0959,0.095,0.0949,0.0948,0.0946,0.0957,0.0957,0.0969,0.0969,0.0969]},{"header":{"parameterUnit":"m.s-1","parameterCategory":1,"la1":30.2991,"la2":30.254,"lo1":-89.0895,"lo2":-89.0444,"dy":0.0017,"dx":0.0017,"nx":28,"ny":28,"refTime":"2025-08-24T21:00:00:Z","depth":0,"parameterNumber":3,"parameterNumberName":"V-component_of_WINDS"},"data":[0,0,0,0,0,0,0,0,0,0,0,0,0,0,0,0,0,0,0,0,0,0,0,0,0,0,0,0,0,0,0,0,0,0,0,0,0,0,0,0,0,0,0,0,0,0,0,0,0,0,0,0,0,0,0,0,0,0,0.2252,0.2255,0,0.2467,0.247,0.2472,0.2553,0.2552,0.2552,0.2551,0.2774,0.278,0.2786,0,0,0,0,0,0,0,0,0,0,0,0,0,0.1911,0.1916,0.2252,0.2255,0.2258,0.2467,0.247,0.2473,0.2553,0.2552,0.2551,0.2551,0.2771,0.2779,0.2787,0,0,0,0,0,0,0,0,0,0,0,0,0,0.2086,0.1918,0.2252,0.2323,0.2331,0.2466,0.247,0.2474,0.2553,0.2552,0.2551,0.255,0.2769,0.2778,0.2788,0.2869,0,0,0.2818,0.2822,0,0,0,0,0,0,0,0,0.2076,0.2098,0.231,0.2318,0.2328,0.2482,0.2431,0.2606,0.2554,0.2469,0.2551,0.255,0.2678,0.2695,0.2738,0.2879,0.2889,0.2819,0.2825,0.2829,0.2832,0,0,0,0,0,0,0,0.2063,0.2089,0.2337,0.2313,0.2324,0.2344,0.2367,0.2465,0.2576,0.2476,0.2483,0.2507,0.2682,0.2728,0.2743,0.2892,0.2819,0.2827,0.2833,0.2837,0.3108,0.3109,0,0,0,0,0,0,0.2039,0.2079,0.2331,0.2344,0.2197,0.2351,0.2377,0.2434,0.2576,0.2596,0.2508,0.251,0.2712,0.2732,0.2751,0.2854,0.2829,0.2838,0.2844,0.3107,0.3108,0.311,0,0,0,0,0,0,0.2032,0.2061,0.2322,0.2213,0.2248,0.2358,0.242,0.2439,0.2484,0.2599,0.262,0.2533,0.2712,0.2738,0.2838,0.2862,0.2843,0.2852,0.3105,0.3107,0.3109,0.3059,0,0,0,0,0,0,0.2021,0.2058,0.209,0.2213,0.2253,0.2405,0.2422,0.2443,0.2501,0.2506,0.2629,0.2648,0.2713,0.2823,0.2848,0.2876,0.2859,0.3104,0.3106,0.3108,0.3059,0.3059,0.3059,0,0,0,0,0,0.2009,0.2069,0.2091,0.2121,0.2296,0.2406,0.2429,0.2502,0.2502,0.2535,0.2608,0.2644,0.2855,0.2833,0.2862,0.2892,0.3102,0.3105,0.3108,0.3059,0.3059,0.3059,0,0,0,0,0,0,0.1947,0.2086,0.2113,0.2214,0.2297,0.242,0.2464,0.25,0.2586,0.2587,0.2673,0.2701,0.2794,0.2854,0.2825,0.2976,0.2981,0.299,0.2934,0.2935,0.2935,0.2919,0.2868,0,0,0,0,0,0.1945,0.2023,0.214,0.2218,0.2259,0.2353,0.2405,0.2452,0.2543,0.2579,0.266,0.2747,0.2832,0.2887,0.2973,0.3068,0.3095,0.3103,0.3103,0.3102,0.3109,0.3161,0.3165,0.3119,0.3119,0.3119,0,0,0.1942,0.2027,0.2072,0.2208,0.2278,0.2356,0.2383,0.2466,0.2524,0.2592,0.2691,0.2753,0.2855,0.2953,0.3,0.3005,0.3127,0.3106,0.3105,0.3112,0.3164,0.3169,0.3172,0.3121,0.3121,0.3121,0,0,0.1976,0.2049,0.2121,0.219,0.2295,0.2357,0.2374,0.2491,0.2534,0.2634,0.2686,0.2757,0.2903,0.2973,0.3028,0.3084,0.312,0.3109,0.3109,0.3159,0.3163,0.3166,0.3185,0.3191,0.3115,0.3115,0.3115,0,0.1959,0.2079,0.2153,0.2232,0.2289,0.2352,0.2424,0.2488,0.2616,0.2654,0.2658,0.2841,0.2915,0.3028,0.3041,0.3084,0.3105,0.3096,0.3156,0.3161,0.3165,0.3184,0.3191,0.3113,0.3114,0.3114,0.3114,0,0.2051,0.2133,0.2179,0.2298,0.2361,0.2436,0.2521,0.2576,0.2617,0.2678,0.2779,0.2868,0.2972,0.3002,0.3045,0.3121,0.3121,0.3139,0.3146,0.3166,0.3185,0.3193,0.311,0.3111,0.3112,0.3112,0,0,0.2055,0.2212,0.2227,0.2281,0.24,0.2465,0.2542,0.2642,0.2686,0.2771,0.2837,0.2958,0.2975,0.3036,0.3087,0.3131,0.3167,0.3144,0.3148,0.3144,0.3254,0.3238,0.3246,0.3191,0.3193,0.3194,0.3245,0,0.2103,0.2243,0.231,0.242,0.2496,0.2555,0.2622,0.2702,0.276,0.2833,0.2898,0.2981,0.2998,0.3035,0.3081,0.3152,0.319,0.315,0.3253,0.3255,0.3224,0.3256,0.3241,0.3285,0.3253,0.3254,0.3255,0,0.2179,0.2262,0.2378,0.2486,0.252,0.2579,0.2674,0.2743,0.2834,0.2873,0.294,0.2989,0.3071,0.3071,0.3185,0.3156,0.3202,0.3242,0.3246,0.3258,0.3256,0.3268,0.3301,0.3306,0.3268,0.3267,0.3266,0,0.2166,0.2308,0.2395,0.244,0.2568,0.2607,0.2663,0.2753,0.2807,0.289,0.2926,0.3018,0.3069,0.3138,0.321,0.3204,0.3316,0.3323,0.3351,0.3349,0.3372,0.3369,0.3411,0.3402,0.3402,0.3402,0.3402,0,0.2213,0.2282,0.2391,0.2444,0.2522,0.2599,0.2674,0.2734,0.2813,0.2879,0.2936,0.2997,0.3088,0.316,0.3217,0.3301,0.3324,0.3357,0.3371,0.3352,0.3347,0.3383,0.3382,0.3404,0.3403,0.3403,0.3403,0,0.2213,0.2289,0.2388,0.25,0.2529,0.2582,0.2678,0.2732,0.2792,0.2875,0.2898,0.2994,0.3081,0.3159,0.3275,0.3313,0.3399,0.3417,0.3367,0.3375,0.3398,0.3394,0.3464,0.3477,0.3459,0.3459,0.3459,0,0.2237,0.2291,0.2408,0.2455,0.2509,0.2586,0.2641,0.2717,0.2773,0.2879,0.2919,0.301,0.3087,0.3224,0.3303,0.3392,0.3412,0.343,0.3426,0.3404,0.3411,0.3406,0.3412,0.343,0.3429,0.3429,0.3429,0,0.2271,0.2305,0.2383,0.2472,0.2535,0.261,0.2686,0.2722,0.2813,0.2871,0.296,0.302,0.3137,0.3226,0.3323,0.338,0.3419,0.3429,0.3441,0.3421,0.339,0.3406,0.3365,0.3428,0.3428,0.3428,0.3428,0.3428,0.2284,0.2333,0.2422,0.2505,0.257,0.2639,0.2695,0.2761,0.2836,0.2937,0.2977,0.3067,0.3155,0.3289,0.3346,0.3417,0.3425,0.3441,0.3445,0.3447,0.3443,0.3378,0.3435,0.3435,0.3435,0.3436,0.3436,0,0.232,0.2379,0.2455,0.2558,0.2623,0.2653,0.2738,0.279,0.2868,0.2947,0.302,0.3121,0.3207,0.3293,0.3383,0.3424,0.3444,0.3445,0.3443,0.3455,0.3432,0.3413,0.3427,0.3427,0.3427,0.3427,0.3427,0.3427,0.2346,0.243,0.2475,0.2591,0.2651,0.2739,0.2784,0.2848,0.291,0.302,0.3092,0.3146,0.3227,0.3323,0.3403,0.3426,0.3456,0.3452,0.3479,0.3457,0.3457,0.3456,0.3439,0.3458,0.3458,0.3496,0.3497,0.3497]}]]